Weather History for Liberia, Costa Rica

Change the Weather History Date:

Tuesday, December 25, 2012

  Actual Average Record
Temperature  
Mean Temperature 80 °F -  
Max Temperature 94 °F 88 °F - ()
Min Temperature 67 °F 73 °F - ()
Cooling Degree Days 16    
Growing Degree Days 30 (Base 50)    
Moisture  
Dew Point 67 °F    
Average Humidity 58    
Maximum Humidity 96    
Minimum Humidity 35    
Precipitation  
Precipitation 0.00 in - - ()
Sea Level Pressure  
Sea Level Pressure 29.79 in    
Wind  
Wind Speed 6 mph ()    
Max Wind Speed 12 mph    
Max Gust Speed -    
Visibility 8.1 miles    
Events      
T = Trace of Precipitation, MM = Missing Value Source: Averaged Metar Reports

Daily Weather History Graph

Daily Weather History Graph

Search for Another Location

Airport:

Trip Planner

Search our weather history database for the weather conditions in past years. The results will help you decide how hot, cold, wet, or windy it might be!

Date:

Astronomy

Dec. 25, 2012 Rise Set
Actual Time 5:57 AM CST 5:27 PM CST
Civil Twilight 5:34 AM CST 5:50 PM CST
Nautical Twilight 5:08 AM CST 6:17 PM CST
Astronomical Twilight 4:41 AM CST 6:43 PM CST
Moon 3:29 PM CST (12/25) 3:37 AM CST (12/25)
Length of Visible Light 12h 16m
Length of Day
11h 30m
Waxing Gibbous, 94% of the Moon is Illuminated
Dec 25
Waxing Gibbous
Dec 28
Full
Jan 4
Last Quarter
Jan 11
New
Jan 18
First Quarter

Hourly Weather History & Observations

Time (CST) Temp. Heat Index Dew Point Humidity Pressure Visibility Wind Dir Wind Speed Gust Speed Precip Events Conditions
6:00 AM 67 °F - 66 °F 96% 29.82 in 12 mi NW 5.8 mph - -  
6:00 AM 68.0 °F - 66.2 °F 94% 29.80 in - NW 5.8 mph - N/A   Clear
7:00 AM 71.6 °F - 68.0 °F 88% 29.83 in - SE 2.3 mph - N/A   Clear
8:00 AM 77.0 °F - 68.0 °F 74% 29.83 in - SSW 4.6 mph - N/A   Clear
9:00 AM 80 °F - 67 °F 55% 29.85 in 12 mi WSW 4.6 mph - -   Scattered Clouds
9:00 AM 80.6 °F 82.7 °F 66.2 °F 61% 29.84 in - WSW 4.6 mph - N/A   Clear
10:00 AM 86.0 °F 88.2 °F 66.2 °F 51% 29.83 in - West 5.8 mph - N/A   Clear
11:00 AM 89.6 °F 92.2 °F 66.2 °F 46% 29.83 in 6.2 mi South 6.9 mph - N/A   Partly Cloudy
12:00 PM 89 °F - 65 °F 36% 29.83 in 12 mi East 10.4 mph - -   Scattered Clouds
12:00 PM 89.6 °F 92.2 °F 66.2 °F 46% 29.81 in 6.2 mi East 10.4 mph - N/A   Scattered Clouds
1:00 PM 91.4 °F 94.0 °F 66.2 °F 43% 29.78 in 6.2 mi ESE 10.4 mph - N/A   Scattered Clouds
2:00 PM 91.4 °F 94.0 °F 66.2 °F 43% 29.75 in 6.2 mi ENE 10.4 mph - N/A   Scattered Clouds
3:00 PM 91 °F - 67 °F 35% 29.75 in 12 mi East 11.5 mph - -   Partly Cloudy
3:00 PM 91.4 °F 94.0 °F 66.2 °F 43% 29.74 in 6.2 mi East 11.5 mph - N/A   Scattered Clouds
4:00 PM 89.6 °F 93.4 °F 68.0 °F 49% 29.74 in 6.2 mi East 9.2 mph - N/A   Partly Cloudy
5:00 PM 86.0 °F 89.4 °F 68.0 °F 55% 29.75 in 6.2 mi East 11.5 mph - N/A   Partly Cloudy
6:00 PM 83 °F - 67 °F 50% 29.78 in 12 mi East 8.1 mph - -   Scattered Clouds
6:00 PM 82.4 °F 85.4 °F 68.0 °F 62% 29.76 in 6.2 mi East 8.1 mph - N/A   Partly Cloudy
7:00 PM 80.6 °F 83.2 °F 68.0 °F 65% 29.78 in 6.2 mi East 4.6 mph - N/A   Scattered Clouds
8:00 PM 80.6 °F 83.2 °F 68.0 °F 65% 29.80 in 6.2 mi SW 4.6 mph - N/A   Mostly Cloudy